Regional Weather Roundup
Issued by NWS Little Rock, AR

Home | Current Version | Previous Version | Text Only | Print | Product List | Glossary On
Versions: 1 2 3 4 5 6 7 8 9 10 11 12 13 14 15 16 17 18 19 20 21 22 23 24 25 26 27 28 29 30 31 32 33 34 35 36 37 38 39 40 41 42 43 44 45 46 47 48 49 50
000
ASUS44 KLZK 220805
RWRLZK

WEATHER ROUNDUP FOR ARKANSAS
NATIONAL WEATHER SERVICE LITTLE ROCK AR
200 AM CST MON JAN 22 2018

NOTE: "FAIR" INDICATES FEW OR NO CLOUDS BELOW 12,000 FEET WITH NO
SIGNIFICANT WEATHER AND/OR OBSTRUCTIONS TO VISIBILITY.

ARZ001-003-010-029-220900-
NORTHWEST ARKANSAS

CITY           SKY/WX    TMP DP  RH WIND       PRES   REMARKS
FAYETTEVILLE   PTCLDY    49  37  63 SW8       29.67S
FORT SMITH     CLEAR     53  41  63 SW8       29.70R
HARRISON       CLOUDY    53  45  74 W13       29.66S
BENTONVILLE    CLOUDY    50  39  66 SW8       29.66S
ROGERS         PTCLDY    51  40  65 SW9       29.64F
SILOAM SPGS    PTCLDY    50  35  56 SW13      29.65F
HIGHFILL       CLOUDY    51  38  60 SW8       29.64F
$$

ARZ004-005-016-220900-
NORTH CENTRAL ARKANSAS

CITY           SKY/WX    TMP DP  RH WIND       PRES   REMARKS
BATESVILLE     TSTM      61  57  88 SW15G25   29.69R
FLIPPIN        LGT RAIN  53  50  89 S5        29.67R
MTN HOME       LGT RAIN  54  53  97 SW6       29.66F
$$

ARZ040-041-220900-
WEST CENTRAL ARKANSAS

CITY           SKY/WX    TMP DP  RH WIND       PRES   REMARKS
MENA           PTCLDY    55  46  71 SW6       29.76R
MOUNT IDA      CLOUDY    50  49  96 CALM      29.73R
$$

ARZ009-017-025-026-028-220900-
NORTHEAST ARKANSAS

CITY           SKY/WX    TMP DP  RH WIND       PRES   REMARKS
JONESBORO      CLOUDY    61  55  81 S24G31    29.70F
NEWPORT        FAIR      61  56  83 S30G36    29.65F
WALNUT RIDGE   CLOUDY    60  55  83 S24G30    29.66F
BLYTHEVILLE    CLOUDY    60  57  89 S18       29.77F
$$

ARZ022-023-033-042-044-220900-
CENTRAL ARKANSAS

CITY           SKY/WX    TMP DP  RH WIND       PRES   REMARKS
LITTLE ROCK    TSTM      52  50  93 W10G31    29.78R FOG
N LITTLE ROCK    N/A     48  47  93 W8G20     29.70R
JACKSONVILLE   HVY RAIN  52  48  87 W16G38    29.76R VSB 1
SEARCY         LGT RAIN  62  62 100 SW17G30   29.71R
HOT SPRINGS    CLOUDY    50  49  96 NW3       29.74F
RUSSELLVILLE   CLOUDY    52  49  89 S6        29.71S
CLINTON        LGT RAIN  54  52  94 W7G13     29.69R
$$

ARZ036-220900-
EAST ARKANSAS

CITY           SKY/WX    TMP DP  RH WIND       PRES   REMARKS
WEST MEMPHIS   CLOUDY    61  53  75 S17       29.79F
$$

ARZ050-053-066-070-073-220900-
SOUTHWEST ARKANSAS

CITY           SKY/WX    TMP DP  RH WIND       PRES   REMARKS
ARKADELPHIA    LGT RAIN  53  49  86 W7        29.74F
CAMDEN         HVY RAIN  64  61  88 S7G14     29.75S
TEXARKANA      PTCLDY    52  48  86 SW9       29.79F
EL DORADO      TSTM      64  64 100 SW16G29   29.79R FOG
DE QUEEN       CLOUDY    53  49  86 S3        29.76R
$$

ARZ056-057-069-220900-
SOUTHEAST ARKANSAS

CITY           SKY/WX    TMP DP  RH WIND       PRES   REMARKS
PINE BLUFF     LGT RAIN  63  59  87 S23G30    29.76R
STUTTGART      LGT RAIN  62  58  86 S28       29.74F
MONTICELLO     LGT RAIN  64  58  80 S14G31    29.79F

$$





USA.gov is the U.S. government's official web portal to all federal, state and local government web resources and services.